STARLINK-32317 (60918 NORAD) Tracking and Keplerian Element Data

This shows tracking and keplerian element data for the satellite.

Feedback or suggestion? Click here.




ElementValue
Catalog60918
NameSTARLINK-32317
Epoch Orbit606
Epoch Day286.91668981
Epoch Year2024
RAAN145.9066
Inclination53.1589
Eccentricity6.58E-05
Argument of Perigee125.3949
Mean Anonmoly214.2923
Mean Motion15.30190335
Decay Rate-5.264E-05
L11 60918U 24154R 24286.91668981 -.00005264 00000+0 -16580-3 0 9991
L22 60918 53.1589 145.9066 0000658 125.3949 214.2923 15.30190335 6065



Live tracking and technical data element details for STARLINK-32317 (NORAD 60918). STARLINK-32317 can be tracked NOW for your location showing map with azimuth and elevation plus other details from your city location.







IsCatalogInMostPopularTable: catalog: 60918, numindb: 8
Update: records affected: 1



GetName: 60918 STARLINK-32317

Hit Count: updated at: Tue, 03 Dec 2024 02:01:21 GMT